Weather History for KBWP - February, 2013

Change the Weather History Date:

Sunday, February 10, 2013

  Actual Average (KFFM) Record (KFFM)
Temperature  
Mean Temperature 28 °F -  
Max Temperature 30 °F 20 °F 41 °F (1987)
Min Temperature 26 °F 1 °F -25 °F (1949)
Degree Days  
Heating Degree Days 37    
Moisture  
Dew Point 27 °F    
Average Humidity 92    
Maximum Humidity 100    
Minimum Humidity 86    
Precipitation  
Precipitation 0.00 in - - ()
Sea Level Pressure  
Sea Level Pressure 29.59 in    
Wind  
Wind Speed 14 mph (NE)    
Max Wind Speed 32 mph    
Max Gust Speed 41 mph    
Visibility 1 miles    
Events      
Averages and records for this station are not official NWS values.
T = Trace of Precipitation, MM = Missing Value Source: NWS Daily Summary

Daily Weather History Graph

Daily Weather History Graph

Search for Another Location

Airport or City:

Trip Planner

Search our weather history database for the weather conditions in past years. The results will help you decide how hot, cold, wet, or windy it might be!

Date:

Astronomy

Feb. 10, 2013 Rise Set
Actual Time 7:36 AM CST 5:45 PM CST
Civil Twilight 7:05 AM CST 6:16 PM CST
Nautical Twilight 6:30 AM CST 6:51 PM CST
Astronomical Twilight 5:55 AM CST 7:26 PM CST
Moon 7:22 AM CST (2/10) 6:43 PM CST (2/10)
Length of Visible Light 11h 11m
Length of Day
10h 08m
New Moon, 0% of the Moon is Illuminated
Feb 10
New Moon
Feb 17
First Quarter
Feb 25
Full
Mar 4
Last Quarter
Mar 11
New

Hourly Weather History & Observations

Time (CST) Temp. Windchill Dew Point Humidity Pressure Visibility Wind Dir Wind Speed Gust Speed Precip Events Conditions
12:15 AM 30.2 °F 21.9 °F 28.4 °F 93% 29.81 in 2.0 mi East 9.2 mph - N/A   Overcast
12:35 AM 30.2 °F 21.9 °F 28.4 °F 93% 29.80 in 1.5 mi East 9.2 mph - N/A   Overcast
12:55 AM 30.2 °F 21.9 °F 30.2 °F 100% 29.79 in 1.0 mi East 9.2 mph - N/A   Overcast
1:15 AM 30.2 °F 21.3 °F 30.2 °F 100% 29.78 in 0.8 mi East 10.4 mph - N/A   Overcast
1:35 AM 30.2 °F 21.9 °F 30.2 °F 100% 29.77 in 1.2 mi East 9.2 mph - N/A   Overcast
1:55 AM 30.2 °F 21.3 °F 28.4 °F 93% 29.77 in 2.0 mi East 10.4 mph - N/A   Overcast
2:15 AM 30.2 °F 21.3 °F 28.4 °F 93% 29.76 in 1.0 mi East 10.4 mph - N/A   Overcast
2:35 AM 30.2 °F 21.9 °F 28.4 °F 93% 29.76 in 1.5 mi East 9.2 mph - N/A   Overcast
2:55 AM 30.2 °F 21.9 °F 28.4 °F 93% 29.76 in 3.0 mi East 9.2 mph - N/A   Overcast
3:15 AM 30.2 °F 21.9 °F 28.4 °F 93% 29.74 in 2.5 mi East 9.2 mph - N/A   Overcast
3:35 AM 30.2 °F 21.9 °F 28.4 °F 93% 29.72 in 4.0 mi East 9.2 mph - N/A   Overcast
3:55 AM 30.2 °F 20.8 °F 28.4 °F 93% 29.70 in 5.0 mi East 11.5 mph - N/A   Overcast
4:15 AM 30.2 °F 21.9 °F 28.4 °F 93% 29.70 in 7.0 mi East 9.2 mph - N/A   Overcast
4:35 AM 30.2 °F 20.8 °F 28.4 °F 93% 29.69 in 10.0 mi East 11.5 mph - N/A   Overcast
4:55 AM 30.2 °F 21.3 °F 28.4 °F 93% 29.69 in 4.0 mi East 10.4 mph - N/A   Overcast
5:15 AM 30.2 °F 21.3 °F 28.4 °F 93% 29.69 in 2.0 mi East 10.4 mph - N/A   Overcast
5:35 AM 30.2 °F 21.3 °F 28.4 °F 93% 29.68 in 1.2 mi East 10.4 mph - N/A   Overcast
5:55 AM 30.2 °F 21.9 °F 28.4 °F 93% 29.67 in 0.5 mi East 9.2 mph - N/A   Overcast
6:15 AM 30.2 °F 22.6 °F 28.4 °F 93% 29.67 in 1.5 mi East 8.1 mph - N/A   Overcast
6:35 AM 30.2 °F 23.4 °F 28.4 °F 93% 29.66 in 2.5 mi ENE 6.9 mph - N/A   Overcast
6:55 AM 30.2 °F 21.9 °F 28.4 °F 93% 29.64 in 2.0 mi NE 9.2 mph - N/A   Overcast
7:15 AM 30.2 °F 21.3 °F 28.4 °F 93% 29.64 in 2.0 mi ENE 10.4 mph - N/A   Overcast
7:35 AM 28.4 °F 19.7 °F 26.6 °F 93% 29.64 in 1.8 mi ENE 9.2 mph - N/A   Overcast
7:55 AM 28.4 °F 19.7 °F 26.6 °F 93% 29.64 in 0.5 mi NE 9.2 mph - N/A   Overcast
8:15 AM 28.4 °F 18.5 °F 28.4 °F 100% 29.62 in 0.2 mi NE 11.5 mph - N/A   Overcast
8:35 AM 28.4 °F 18.5 °F 28.4 °F 100% 29.62 in 0.5 mi NE 11.5 mph 18.4 mph N/A   Overcast
8:55 AM 28.4 °F 18.5 °F 26.6 °F 93% 29.62 in 1.0 mi NE 11.5 mph - N/A   Overcast
9:15 AM 28.4 °F 18.5 °F 26.6 °F 93% 29.61 in 0.8 mi NE 11.5 mph - N/A   Overcast
9:35 AM 28.4 °F 16.2 °F 26.6 °F 93% 29.61 in 0.8 mi NE 17.3 mph 21.9 mph N/A   Overcast
9:55 AM 28.4 °F 15.1 °F 26.6 °F 93% 29.57 in 0.2 mi NE 20.7 mph 26.5 mph N/A   Overcast
10:15 AM 28.4 °F 16.6 °F 26.6 °F 93% 29.59 in 0.2 mi NE 16.1 mph - N/A   Overcast
10:35 AM 28.4 °F 17.0 °F 26.6 °F 93% 29.58 in 0.2 mi NE 15.0 mph 21.9 mph N/A   Overcast
10:55 AM 28.4 °F 15.1 °F 26.6 °F 93% 29.54 in 0.2 mi NNE 20.7 mph 28.8 mph N/A   Overcast
11:15 AM 28.4 °F 15.1 °F 26.6 °F 93% 29.52 in 0.5 mi NE 20.7 mph 28.8 mph N/A   Overcast
11:35 AM 28.4 °F 16.2 °F 26.6 °F 93% 29.53 in 0.2 mi NE 17.3 mph - N/A   Overcast
11:55 AM 28.4 °F 15.4 °F 26.6 °F 93% 29.51 in 0.2 mi NE 19.6 mph 25.3 mph N/A   Overcast
12:15 PM 28.4 °F 16.2 °F 26.6 °F 93% 29.50 in 0.2 mi NE 17.3 mph 21.9 mph N/A   Overcast
12:35 PM 28.4 °F 16.6 °F 26.6 °F 93% 29.48 in 0.2 mi NE 16.1 mph 24.2 mph N/A   Overcast
12:55 PM 28.4 °F 17.5 °F 26.6 °F 93% 29.48 in 0.2 mi NE 13.8 mph - N/A   Overcast
1:15 PM 28.4 °F 18.0 °F 26.6 °F 93% 29.47 in 0.2 mi NNE 12.7 mph - N/A   Overcast
1:35 PM 28.4 °F 18.0 °F 26.6 °F 93% 29.47 in 0.5 mi NNE 12.7 mph - N/A   Overcast
1:55 PM 28.4 °F 17.5 °F 26.6 °F 93% 29.46 in 0.5 mi NNE 13.8 mph 17.3 mph N/A   Overcast
2:15 PM 28.4 °F 18.5 °F 26.6 °F 93% 29.46 in 0.5 mi NNE 11.5 mph - N/A   Overcast
2:35 PM 28.4 °F 18.5 °F 26.6 °F 93% 29.46 in 0.5 mi North 11.5 mph 16.1 mph N/A   Overcast
2:55 PM 28.4 °F 17.5 °F 26.6 °F 93% 29.46 in 0.5 mi North 13.8 mph - N/A   Overcast
3:15 PM 28.4 °F 17.5 °F 26.6 °F 93% 29.46 in 0.2 mi North 13.8 mph - N/A   Overcast
3:35 PM 28.4 °F 17.5 °F 26.6 °F 93% 29.46 in 0.2 mi North 13.8 mph - N/A   Overcast
3:55 PM 28.4 °F 17.5 °F 26.6 °F 93% 29.47 in 0.2 mi North 13.8 mph - N/A   Overcast
4:15 PM 28.4 °F 15.4 °F 26.6 °F 93% 29.47 in 0.2 mi North 19.6 mph 24.2 mph N/A   Overcast
4:35 PM 28.4 °F 15.1 °F 26.6 °F 93% 29.47 in 0.5 mi North 20.7 mph 25.3 mph N/A   Overcast
4:55 PM 28.4 °F 14.7 °F 26.6 °F 93% 29.47 in 0.5 mi North 21.9 mph 28.8 mph N/A   Overcast
5:15 PM 28.4 °F 14.4 °F 24.8 °F 86% 29.48 in 0.5 mi North 23.0 mph 26.5 mph N/A   Overcast
5:35 PM 26.6 °F 12.0 °F 24.8 °F 93% 29.49 in 0.5 mi North 23.0 mph 32.2 mph N/A   Overcast
5:55 PM 26.6 °F 11.4 °F 24.8 °F 93% 29.49 in 0.8 mi North 25.3 mph 29.9 mph N/A   Overcast
6:15 PM 26.6 °F 11.1 °F 24.8 °F 93% 29.50 in 1.5 mi North 26.5 mph 33.4 mph N/A   Overcast
6:35 PM 28.4 °F 13.8 °F 24.8 °F 86% 29.50 in 1.8 mi North 25.3 mph 33.4 mph N/A   Overcast
6:55 PM 26.6 °F 12.0 °F 24.8 °F 93% 29.51 in - North 23.0 mph 31.1 mph N/A   Unknown
7:15 PM 26.6 °F 11.4 °F 24.8 °F 93% 29.52 in - North 25.3 mph 34.5 mph N/A   Unknown
7:35 PM 28.4 °F 13.8 °F 24.8 °F 86% 29.52 in - North 25.3 mph 33.4 mph N/A   Unknown
7:55 PM 26.6 °F 10.0 °F 24.8 °F 93% 29.52 in - North 31.1 mph 38.0 mph N/A   Unknown
8:15 PM 26.6 °F 11.1 °F 24.8 °F 93% 29.53 in - North 26.5 mph 33.4 mph N/A   Unknown
8:35 PM 26.6 °F 11.4 °F 24.8 °F 93% 29.54 in - North 25.3 mph 36.8 mph N/A   Unknown
8:55 PM 26.6 °F 11.4 °F 24.8 °F 93% 29.54 in - North 25.3 mph 34.5 mph N/A   Unknown
9:15 PM 26.6 °F 11.1 °F 23.0 °F 86% 29.55 in - North 26.5 mph 35.7 mph N/A   Unknown
9:35 PM 26.6 °F 11.1 °F 23.0 °F 86% 29.56 in - North 26.5 mph 34.5 mph N/A   Unknown
9:55 PM 26.6 °F 11.4 °F 23.0 °F 86% 29.56 in - North 25.3 mph 36.8 mph N/A   Unknown
10:15 PM 26.6 °F 10.8 °F 23.0 °F 86% 29.57 in - North 27.6 mph 34.5 mph N/A   Unknown
10:35 PM 26.6 °F 10.3 °F 23.0 °F 86% 29.58 in - North 29.9 mph 38.0 mph N/A   Unknown
10:55 PM 26.6 °F 10.0 °F 23.0 °F 86% 29.59 in - North 31.1 mph 41.4 mph N/A   Unknown
11:15 PM 26.6 °F 9.8 °F 23.0 °F 86% 29.60 in - North 32.2 mph 41.4 mph N/A   Unknown
11:35 PM 26.6 °F 10.8 °F 23.0 °F 86% 29.61 in - North 27.6 mph 34.5 mph N/A   Unknown
11:55 PM 26.6 °F 10.3 °F 23.0 °F 86% 29.61 in - North 29.9 mph 38.0 mph N/A   Unknown